Time,TemperatureF,DewpointF,PressureIn,WindDirection,WindDirectionDegrees,WindSpeedMPH,WindSpeedGustMPH,Humidity,HourlyPrecipIn,Conditions,Clouds,dailyrainin,SoftwareType,DateUTC
2013-05-02 00:00:00,49.5,46.7,30.44,NE,53,3.0,4.0,90,0.00,,,0.00,Wunderground v.1.15,2013-05-02 04:00:00,
2013-05-02 00:05:00,49.5,46.4,30.44,NE,53,3.0,4.0,89,0.00,,,0.00,Wunderground v.1.15,2013-05-02 04:05:00,
2013-05-02 00:10:00,49.6,46.5,30.44,ENE,60,3.0,4.0,89,0.00,,,0.00,Wunderground v.1.15,2013-05-02 04:10:00,
2013-05-02 00:15:00,49.6,46.5,30.43,NE,49,3.0,4.0,89,0.00,,,0.00,Wunderground v.1.15,2013-05-02 04:15:00,
2013-05-02 00:20:00,49.5,46.1,30.44,NNE,27,2.0,4.0,88,0.00,,,0.00,Wunderground v.1.15,2013-05-02 04:20:00,
2013-05-02 00:25:00,49.3,45.9,30.43,North,4,2.0,4.0,88,0.00,,,0.00,Wunderground v.1.15,2013-05-02 04:25:00,
2013-05-02 00:30:00,49.0,45.9,30.43,North,4,1.0,1.0,89,0.00,,,0.00,Wunderground v.1.15,2013-05-02 04:30:00,
2013-05-02 00:35:00,48.6,45.8,30.43,North,359,1.0,2.0,90,0.00,,,0.00,Wunderground v.1.15,2013-05-02 04:35:00,
2013-05-02 00:40:00,48.1,45.3,30.43,NNW,328,1.0,1.0,90,0.00,,,0.00,Wunderground v.1.15,2013-05-02 04:40:00,
2013-05-02 00:45:00,47.8,45.3,30.43,NW,322,2.0,2.0,91,0.00,,,0.00,Wunderground v.1.15,2013-05-02 04:45:00,
2013-05-02 00:55:00,47.4,45.2,30.43,NW,325,2.0,2.0,92,0.00,,,0.00,Wunderground v.1.15,2013-05-02 04:55:00,
2013-05-02 01:00:00,47.3,45.1,30.42,NNW,328,2.0,2.0,92,0.00,,,0.00,Wunderground v.1.15,2013-05-02 05:00:00,
2013-05-02 01:05:00,47.1,44.9,30.42,North,350,2.0,2.0,92,0.00,,,0.00,Wunderground v.1.15,2013-05-02 05:05:00,
2013-05-02 01:10:00,47.1,45.2,30.42,NNW,343,1.0,1.0,93,0.00,,,0.00,Wunderground v.1.15,2013-05-02 05:10:00,
2013-05-02 01:15:00,47.2,45.3,30.42,North,355,1.0,2.0,93,0.00,,,0.00,Wunderground v.1.15,2013-05-02 05:15:00,
2013-05-02 01:20:00,47.3,45.4,30.41,North,359,1.0,1.0,93,0.00,,,0.00,Wunderground v.1.15,2013-05-02 05:20:00,
2013-05-02 01:25:00,47.1,44.9,30.41,North,350,1.0,1.0,92,0.00,,,0.00,Wunderground v.1.15,2013-05-02 05:25:00,
2013-05-02 01:30:00,46.9,45.0,30.41,North,349,1.0,1.0,93,0.00,,,0.00,Wunderground v.1.15,2013-05-02 05:30:00,
2013-05-02 01:40:00,46.6,44.7,30.41,NNW,330,1.0,1.0,93,0.00,,,0.00,Wunderground v.1.15,2013-05-02 05:40:00,
2013-05-02 01:45:00,46.5,44.6,30.41,NNW,335,2.0,2.0,93,0.00,,,0.00,Wunderground v.1.15,2013-05-02 05:45:00,
2013-05-02 01:50:00,46.8,45.2,30.40,NE,38,2.0,2.0,94,0.00,,,0.00,Wunderground v.1.15,2013-05-02 05:50:00,
2013-05-02 01:55:00,47.4,45.5,30.40,NNE,30,2.0,2.0,93,0.00,,,0.00,Wunderground v.1.15,2013-05-02 05:55:00,
2013-05-02 02:00:00,47.9,45.7,30.40,NNE,20,2.0,3.0,92,0.00,,,0.00,Wunderground v.1.15,2013-05-02 06:00:00,
2013-05-02 02:05:00,48.5,46.0,30.40,NE,41,3.0,4.0,91,0.00,,,0.00,Wunderground v.1.15,2013-05-02 06:05:00,
2013-05-02 02:10:00,48.9,45.8,30.40,NE,39,3.0,4.0,89,0.00,,,0.00,Wunderground v.1.15,2013-05-02 06:10:00,
2013-05-02 02:20:00,49.5,46.1,30.39,NE,53,4.0,4.0,88,0.00,,,0.00,Wunderground v.1.15,2013-05-02 06:20:00,
2013-05-02 02:25:00,49.8,46.1,30.39,ENE,59,5.0,5.0,87,0.00,,,0.00,Wunderground v.1.15,2013-05-02 06:25:00,
2013-05-02 02:30:00,49.9,46.2,30.39,ENE,63,5.0,5.0,87,0.00,,,0.00,Wunderground v.1.15,2013-05-02 06:30:00,
2013-05-02 02:35:00,49.9,46.2,30.39,NE,56,4.0,5.0,87,0.00,,,0.00,Wunderground v.1.15,2013-05-02 06:35:00,
2013-05-02 02:40:00,50.0,46.3,30.39,NE,46,4.0,4.0,87,0.00,,,0.00,Wunderground v.1.15,2013-05-02 06:40:00,
2013-05-02 02:45:00,49.9,46.2,30.39,NE,52,4.0,4.0,87,0.00,,,0.00,Wunderground v.1.15,2013-05-02 06:45:00,
2013-05-02 02:50:00,49.8,46.1,30.39,NE,39,3.0,3.0,87,0.00,,,0.00,Wunderground v.1.15,2013-05-02 06:50:00,
2013-05-02 02:55:00,49.7,46.0,30.39,ENE,70,3.0,3.0,87,0.00,,,0.00,Wunderground v.1.15,2013-05-02 06:55:00,
2013-05-02 03:05:00,49.9,46.2,30.38,ENE,58,4.0,6.0,87,0.00,,,0.00,Wunderground v.1.15,2013-05-02 07:05:00,
2013-05-02 03:10:00,49.9,46.2,30.38,ENE,66,5.0,5.0,87,0.00,,,0.00,Wunderground v.1.15,2013-05-02 07:10:00,
2013-05-02 03:15:00,50.0,46.3,30.38,ENE,74,4.0,5.0,87,0.00,,,0.00,Wunderground v.1.15,2013-05-02 07:15:00,
2013-05-02 03:20:00,50.0,46.0,30.38,ENE,66,4.0,5.0,86,0.00,,,0.00,Wunderground v.1.15,2013-05-02 07:20:00,
2013-05-02 03:25:00,50.1,46.1,30.38,ENE,72,5.0,5.0,86,0.00,,,0.00,Wunderground v.1.15,2013-05-02 07:25:00,
2013-05-02 03:30:00,50.1,46.1,30.38,East,84,4.0,6.0,86,0.00,,,0.00,Wunderground v.1.15,2013-05-02 07:30:00,
2013-05-02 03:35:00,50.1,46.1,30.38,ENE,70,4.0,6.0,86,0.00,,,0.00,Wunderground v.1.15,2013-05-02 07:35:00,
2013-05-02 03:40:00,50.1,46.1,30.38,ENE,77,4.0,5.0,86,0.00,,,0.00,Wunderground v.1.15,2013-05-02 07:40:00,
2013-05-02 03:50:00,50.1,46.1,30.38,ENE,58,5.0,5.0,86,0.00,,,0.00,Wunderground v.1.15,2013-05-02 07:50:00,
2013-05-02 03:55:00,50.1,46.1,30.38,NE,53,5.0,6.0,86,0.00,,,0.00,Wunderground v.1.15,2013-05-02 07:55:00,
2013-05-02 04:05:00,50.1,46.1,30.38,ENE,64,5.0,5.0,86,0.00,,,0.00,Wunderground v.1.15,2013-05-02 08:05:00,
2013-05-02 04:10:00,50.1,46.1,30.38,ENE,63,5.0,5.0,86,0.00,,,0.00,Wunderground v.1.15,2013-05-02 08:10:00,
2013-05-02 04:15:00,50.1,46.1,30.38,ENE,72,6.0,6.0,86,0.00,,,0.00,Wunderground v.1.15,2013-05-02 08:15:00,
2013-05-02 04:25:00,50.2,46.2,30.39,NE,53,6.0,7.0,86,0.00,,,0.00,Wunderground v.1.15,2013-05-02 08:25:00,
2013-05-02 04:30:00,50.2,46.2,30.39,ENE,58,6.0,6.0,86,0.00,,,0.00,Wunderground v.1.15,2013-05-02 08:30:00,
2013-05-02 04:35:00,50.2,46.2,30.38,NE,51,6.0,6.0,86,0.00,,,0.00,Wunderground v.1.15,2013-05-02 08:35:00,
2013-05-02 04:40:00,50.2,46.2,30.39,NE,54,5.0,6.0,86,0.00,,,0.00,Wunderground v.1.15,2013-05-02 08:40:00,
2013-05-02 04:45:00,50.3,46.0,30.38,ENE,78,5.0,6.0,85,0.00,,,0.00,Wunderground v.1.15,2013-05-02 08:45:00,
2013-05-02 04:55:00,50.2,45.9,30.39,ENE,77,4.0,5.0,85,0.00,,,0.00,Wunderground v.1.15,2013-05-02 08:55:00,
2013-05-02 05:05:00,50.2,46.2,30.38,ENE,66,4.0,6.0,86,0.00,,,0.00,Wunderground v.1.15,2013-05-02 09:05:00,
2013-05-02 05:10:00,50.1,46.1,30.38,ENE,64,4.0,4.0,86,0.00,,,0.00,Wunderground v.1.15,2013-05-02 09:10:00,
2013-05-02 05:15:00,50.1,46.1,30.38,East,79,4.0,5.0,86,0.00,,,0.00,Wunderground v.1.15,2013-05-02 09:15:00,
2013-05-02 05:20:00,50.1,46.1,30.38,ENE,65,4.0,5.0,86,0.00,,,0.00,Wunderground v.1.15,2013-05-02 09:20:00,
2013-05-02 05:30:00,50.2,45.9,30.38,East,80,4.0,5.0,85,0.00,,,0.00,Wunderground v.1.15,2013-05-02 09:30:00,
2013-05-02 05:35:00,50.3,46.0,30.38,ENE,70,4.0,5.0,85,0.00,,,0.00,Wunderground v.1.15,2013-05-02 09:35:00,
2013-05-02 05:40:00,50.2,45.9,30.38,ENE,69,4.0,4.0,85,0.00,,,0.00,Wunderground v.1.15,2013-05-02 09:40:00,
2013-05-02 05:50:00,50.3,46.0,30.39,East,87,3.0,3.0,85,0.00,,,0.00,Wunderground v.1.15,2013-05-02 09:50:00,
2013-05-02 05:55:00,50.3,46.0,30.39,ENE,70,3.0,4.0,85,0.00,,,0.00,Wunderground v.1.15,2013-05-02 09:55:00,
2013-05-02 06:05:00,50.3,46.0,30.39,East,81,3.0,3.0,85,0.00,,,0.00,Wunderground v.1.15,2013-05-02 10:05:00,
2013-05-02 06:10:00,50.3,46.3,30.40,ENE,66,3.0,3.0,86,0.00,,,0.00,Wunderground v.1.15,2013-05-02 10:10:00,
2013-05-02 06:15:00,50.6,46.6,30.40,ENE,70,2.0,3.0,86,0.00,,,0.00,Wunderground v.1.15,2013-05-02 10:15:00,
2013-05-02 06:20:00,50.8,47.1,30.40,ENE,61,3.0,3.0,87,0.00,,,0.00,Wunderground v.1.15,2013-05-02 10:20:00,
2013-05-02 06:25:00,51.0,47.3,30.40,ENE,61,3.0,3.0,87,0.00,,,0.00,Wunderground v.1.15,2013-05-02 10:25:00,
2013-05-02 06:35:00,51.6,47.5,30.41,NE,55,3.0,3.0,86,0.00,,,0.00,Wunderground v.1.15,2013-05-02 10:35:00,
2013-05-02 06:40:00,51.8,47.7,30.41,ENE,78,3.0,3.0,86,0.00,,,0.00,Wunderground v.1.15,2013-05-02 10:40:00,
2013-05-02 06:45:00,52.0,47.9,30.41,ENE,61,3.0,3.0,86,0.00,,,0.00,Wunderground v.1.15,2013-05-02 10:45:00,
2013-05-02 06:50:00,52.1,48.0,30.41,NE,55,2.0,2.0,86,0.00,,,0.00,Wunderground v.1.15,2013-05-02 10:50:00,
2013-05-02 06:55:00,52.2,47.8,30.41,ENE,58,1.0,2.0,85,0.00,,,0.00,Wunderground v.1.15,2013-05-02 10:55:00,
2013-05-02 07:00:00,52.0,47.9,30.41,NE,53,1.0,5.0,86,0.00,,,0.00,Wunderground v.1.15,2013-05-02 11:00:00,
2013-05-02 07:05:00,52.2,48.1,30.41,NE,50,3.0,6.0,86,0.00,,,0.00,Wunderground v.1.15,2013-05-02 11:05:00,
2013-05-02 07:10:00,52.4,48.3,30.41,ENE,75,4.0,4.0,86,0.00,,,0.00,Wunderground v.1.15,2013-05-02 11:10:00,
2013-05-02 07:15:00,52.4,48.0,30.41,ENE,61,4.0,5.0,85,0.00,,,0.00,Wunderground v.1.15,2013-05-02 11:15:00,
2013-05-02 07:25:00,52.5,48.1,30.41,ESE,107,4.0,4.0,85,0.00,,,0.00,Wunderground v.1.15,2013-05-02 11:25:00,
2013-05-02 07:30:00,52.5,47.8,30.41,East,86,4.0,4.0,84,0.00,,,0.00,Wunderground v.1.15,2013-05-02 11:30:00,
2013-05-02 07:35:00,52.3,47.3,30.41,ENE,61,5.0,5.0,83,0.00,,,0.00,Wunderground v.1.15,2013-05-02 11:35:00,
2013-05-02 07:40:00,52.2,47.5,30.41,East,92,6.0,6.0,84,0.00,,,0.00,Wunderground v.1.15,2013-05-02 11:40:00,
2013-05-02 07:45:00,52.4,47.7,30.42,ENE,69,5.0,6.0,84,0.00,,,0.00,Wunderground v.1.15,2013-05-02 11:45:00,
2013-05-02 07:50:00,52.4,47.4,30.42,East,82,4.0,6.0,83,0.00,,,0.00,Wunderground v.1.15,2013-05-02 11:50:00,
2013-05-02 07:55:00,52.4,47.4,30.41,East,86,5.0,7.0,83,0.00,,,0.00,Wunderground v.1.15,2013-05-02 11:55:00,
2013-05-02 08:00:00,52.4,47.4,30.42,East,89,5.0,6.0,83,0.00,,,0.00,Wunderground v.1.15,2013-05-02 12:00:00,
2013-05-02 08:05:00,52.2,47.2,30.42,ENE,77,6.0,6.0,83,0.00,,,0.00,Wunderground v.1.15,2013-05-02 12:05:00,
2013-05-02 08:15:00,52.2,47.2,30.42,NE,56,5.0,5.0,83,0.00,,,0.00,Wunderground v.1.15,2013-05-02 12:15:00,
2013-05-02 08:20:00,52.4,47.4,30.42,NE,53,5.0,6.0,83,0.00,,,0.00,Wunderground v.1.15,2013-05-02 12:20:00,
2013-05-02 08:25:00,52.3,47.0,30.43,ENE,66,5.0,6.0,82,0.00,,,0.00,Wunderground v.1.15,2013-05-02 12:25:00,
2013-05-02 08:30:00,52.3,47.0,30.43,ENE,67,6.0,6.0,82,0.00,,,0.00,Wunderground v.1.15,2013-05-02 12:30:00,
2013-05-02 08:35:00,52.2,46.5,30.43,ENE,66,6.0,6.0,81,0.00,,,0.00,Wunderground v.1.15,2013-05-02 12:35:00,
2013-05-02 08:40:00,52.2,46.2,30.43,NE,48,6.0,9.0,80,0.00,,,0.00,Wunderground v.1.15,2013-05-02 12:40:00,
2013-05-02 08:45:00,52.1,46.1,30.43,ENE,75,6.0,9.0,80,0.00,,,0.00,Wunderground v.1.15,2013-05-02 12:45:00,
2013-05-02 08:55:00,52.1,46.4,30.43,ENE,75,7.0,7.0,81,0.00,,,0.00,Wunderground v.1.15,2013-05-02 12:55:00,
2013-05-02 09:00:00,52.3,47.0,30.43,ENE,78,6.0,6.0,82,0.00,,,0.00,Wunderground v.1.15,2013-05-02 13:00:00,
2013-05-02 09:05:00,52.2,46.2,30.43,ENE,70,6.0,6.0,80,0.00,,,0.00,Wunderground v.1.15,2013-05-02 13:05:00,
2013-05-02 09:15:00,52.0,46.3,30.43,ENE,78,6.0,7.0,81,0.00,,,0.00,Wunderground v.1.15,2013-05-02 13:15:00,
2013-05-02 09:20:00,52.0,46.3,30.43,East,86,6.0,6.0,81,0.00,,,0.00,Wunderground v.1.15,2013-05-02 13:20:00,
2013-05-02 09:30:00,52.0,46.3,30.43,East,86,6.0,6.0,81,0.00,,,0.00,Wunderground v.1.15,2013-05-02 13:30:00,
2013-05-02 09:35:00,52.1,46.4,30.43,NE,53,6.0,6.0,81,0.00,,,0.00,Wunderground v.1.15,2013-05-02 13:35:00,
2013-05-02 09:40:00,52.1,46.8,30.43,NE,53,5.0,5.0,82,0.00,,,0.00,Wunderground v.1.15,2013-05-02 13:40:00,
2013-05-02 09:45:00,52.2,46.2,30.43,ENE,75,5.0,6.0,80,0.00,,,0.00,Wunderground v.1.15,2013-05-02 13:45:00,
2013-05-02 09:55:00,52.4,45.7,30.44,ENE,72,6.0,7.0,78,0.00,,,0.00,Wunderground v.1.15,2013-05-02 13:55:00,
2013-05-02 10:00:00,52.4,45.7,30.44,ENE,72,6.0,6.0,78,0.00,,,0.00,Wunderground v.1.15,2013-05-02 14:00:00,
2013-05-02 10:05:00,52.4,45.4,30.44,ENE,75,6.0,6.0,77,0.00,,,0.00,Wunderground v.1.15,2013-05-02 14:05:00,
2013-05-02 10:10:00,52.5,46.2,30.44,East,97,5.0,7.0,79,0.00,,,0.00,Wunderground v.1.15,2013-05-02 14:10:00,
2013-05-02 10:15:00,52.6,45.9,30.44,ENE,62,5.0,7.0,78,0.00,,,0.00,Wunderground v.1.15,2013-05-02 14:15:00,
2013-05-02 10:20:00,52.7,46.0,30.44,East,100,5.0,5.0,78,0.00,,,0.00,Wunderground v.1.15,2013-05-02 14:20:00,
2013-05-02 10:25:00,52.6,45.6,30.44,ENE,78,5.0,5.0,77,0.00,,,0.00,Wunderground v.1.15,2013-05-02 14:25:00,
2013-05-02 10:30:00,52.4,45.4,30.44,ENE,70,6.0,6.0,77,0.00,,,0.00,Wunderground v.1.15,2013-05-02 14:30:00,
2013-05-02 10:35:00,52.4,45.7,30.44,ENE,72,6.0,6.0,78,0.00,,,0.00,Wunderground v.1.15,2013-05-02 14:35:00,
2013-05-02 10:40:00,52.7,46.0,30.44,ENE,74,5.0,5.0,78,0.00,,,0.00,Wunderground v.1.15,2013-05-02 14:40:00,
2013-05-02 10:50:00,52.7,45.3,30.44,East,97,5.0,5.0,76,0.00,,,0.00,Wunderground v.1.15,2013-05-02 14:50:00,
2013-05-02 10:55:00,53.0,45.6,30.44,ESE,103,5.0,5.0,76,0.00,,,0.00,Wunderground v.1.15,2013-05-02 14:55:00,
2013-05-02 11:00:00,53.0,45.3,30.44,ESE,106,5.0,8.0,75,0.00,,,0.00,Wunderground v.1.15,2013-05-02 15:00:00,
2013-05-02 11:05:00,53.1,45.7,30.44,East,97,5.0,8.0,76,0.00,,,0.00,Wunderground v.1.15,2013-05-02 15:05:00,
2013-05-02 11:15:00,53.0,46.0,30.44,ESE,103,6.0,6.0,77,0.00,,,0.00,Wunderground v.1.15,2013-05-02 15:15:00,
2013-05-02 11:20:00,53.1,46.1,30.44,East,97,6.0,6.0,77,0.00,,,0.00,Wunderground v.1.15,2013-05-02 15:20:00,
2013-05-02 11:30:00,53.0,45.6,30.44,East,93,6.0,6.0,76,0.00,,,0.00,Wunderground v.1.15,2013-05-02 15:30:00,
2013-05-02 11:35:00,53.2,46.2,30.44,ENE,64,6.0,6.0,77,0.00,,,0.00,Wunderground v.1.15,2013-05-02 15:35:00,
2013-05-02 11:40:00,53.2,45.1,30.44,ESE,108,6.0,8.0,74,0.00,,,0.00,Wunderground v.1.15,2013-05-02 15:40:00,
2013-05-02 11:50:00,53.4,46.0,30.44,East,92,6.0,8.0,76,0.00,,,0.00,Wunderground v.1.15,2013-05-02 15:50:00,
2013-05-02 11:55:00,53.3,45.6,30.44,East,83,6.0,8.0,75,0.00,,,0.00,Wunderground v.1.15,2013-05-02 15:55:00,
2013-05-02 12:00:00,53.3,46.3,30.44,East,84,6.0,6.0,77,0.00,,,0.00,Wunderground v.1.15,2013-05-02 16:00:00,
2013-05-02 12:05:00,53.2,46.2,30.43,East,82,6.0,6.0,77,0.00,,,0.00,Wunderground v.1.15,2013-05-02 16:05:00,
2013-05-02 12:10:00,53.2,45.8,30.43,ENE,64,6.0,6.0,76,0.00,,,0.00,Wunderground v.1.15,2013-05-02 16:10:00,
2013-05-02 12:20:00,53.3,45.9,30.43,East,86,6.0,6.0,76,0.00,,,0.00,Wunderground v.1.15,2013-05-02 16:20:00,
2013-05-02 12:25:00,53.6,46.6,30.43,ESE,106,5.0,7.0,77,0.00,,,0.00,Wunderground v.1.15,2013-05-02 16:25:00,
2013-05-02 12:30:00,53.6,46.6,30.42,East,83,5.0,6.0,77,0.00,,,0.00,Wunderground v.1.15,2013-05-02 16:30:00,
2013-05-02 12:35:00,53.7,45.6,30.42,East,84,5.0,6.0,74,0.00,,,0.00,Wunderground v.1.15,2013-05-02 16:35:00,
2013-05-02 12:40:00,53.7,46.7,30.42,East,98,6.0,6.0,77,0.00,,,0.00,Wunderground v.1.15,2013-05-02 16:40:00,
2013-05-02 12:45:00,53.7,45.6,30.42,East,89,5.0,6.0,74,0.00,,,0.00,Wunderground v.1.15,2013-05-02 16:45:00,
2013-05-02 12:50:00,53.5,45.4,30.42,ENE,76,6.0,6.0,74,0.00,,,0.00,Wunderground v.1.15,2013-05-02 16:50:00,
2013-05-02 12:55:00,53.5,46.1,30.42,East,79,5.0,6.0,76,0.00,,,0.00,Wunderground v.1.15,2013-05-02 16:55:00,
2013-05-02 13:00:00,53.5,46.1,30.42,NE,56,5.0,5.0,76,0.00,,,0.00,Wunderground v.1.15,2013-05-02 17:00:00,
2013-05-02 13:10:00,53.7,45.6,30.42,East,88,5.0,5.0,74,0.00,,,0.00,Wunderground v.1.15,2013-05-02 17:10:00,
2013-05-02 13:15:00,53.8,45.7,30.42,ENE,72,4.0,7.0,74,0.00,,,0.00,Wunderground v.1.15,2013-05-02 17:15:00,
2013-05-02 13:20:00,53.9,45.8,30.42,East,99,5.0,5.0,74,0.00,,,0.00,Wunderground v.1.15,2013-05-02 17:20:00,
2013-05-02 13:30:00,53.8,45.0,30.42,East,100,6.0,7.0,72,0.00,,,0.00,Wunderground v.1.15,2013-05-02 17:30:00,
2013-05-02 13:35:00,53.7,44.9,30.42,East,79,6.0,7.0,72,0.00,,,0.00,Wunderground v.1.15,2013-05-02 17:35:00,
2013-05-02 13:40:00,54.3,46.2,30.41,ENE,78,6.0,6.0,74,0.00,,,0.00,Wunderground v.1.15,2013-05-02 17:40:00,
2013-05-02 13:45:00,54.2,45.0,30.41,SE,139,5.0,6.0,71,0.00,,,0.00,Wunderground v.1.15,2013-05-02 17:45:00,
2013-05-02 13:55:00,54.4,46.3,30.41,East,93,5.0,6.0,74,0.00,,,0.00,Wunderground v.1.15,2013-05-02 17:55:00,
2013-05-02 14:05:00,54.7,46.2,30.41,SE,139,5.0,6.0,73,0.00,,,0.00,Wunderground v.1.15,2013-05-02 18:05:00,
2013-05-02 14:10:00,54.7,46.2,30.41,SE,136,5.0,5.0,73,0.00,,,0.00,Wunderground v.1.15,2013-05-02 18:10:00,
2013-05-02 14:15:00,55.1,45.9,30.41,ESE,113,5.0,5.0,71,0.00,,,0.00,Wunderground v.1.15,2013-05-02 18:15:00,
2013-05-02 14:20:00,55.2,46.7,30.41,SE,142,5.0,6.0,73,0.00,,,0.00,Wunderground v.1.15,2013-05-02 18:20:00,
2013-05-02 14:25:00,55.3,46.4,30.41,ESE,122,5.0,6.0,72,0.00,,,0.00,Wunderground v.1.15,2013-05-02 18:25:00,
2013-05-02 14:30:00,55.3,46.4,30.41,SSE,156,5.0,7.0,72,0.00,,,0.00,Wunderground v.1.15,2013-05-02 18:30:00,
2013-05-02 14:40:00,55.2,45.6,30.40,South,169,6.0,6.0,70,0.00,,,0.00,Wunderground v.1.15,2013-05-02 18:40:00,
2013-05-02 14:50:00,55.3,45.3,30.40,SE,145,5.0,6.0,69,0.00,,,0.00,Wunderground v.1.15,2013-05-02 18:50:00,
2013-05-02 14:55:00,55.4,45.4,30.40,SE,139,5.0,6.0,69,0.00,,,0.00,Wunderground v.1.15,2013-05-02 18:55:00,
2013-05-02 15:00:00,55.5,45.1,30.40,ESE,114,5.0,5.0,68,0.00,,,0.00,Wunderground v.1.15,2013-05-02 19:00:00,
2013-05-02 15:05:00,56.0,45.2,30.39,East,95,5.0,7.0,67,0.00,,,0.00,Wunderground v.1.15,2013-05-02 19:05:00,
2013-05-02 15:15:00,56.5,45.3,30.39,SE,145,5.0,6.0,66,0.00,,,0.00,Wunderground v.1.15,2013-05-02 19:15:00,
2013-05-02 15:20:00,56.6,44.1,30.39,SSE,150,5.0,6.0,63,0.00,,,0.00,Wunderground v.1.15,2013-05-02 19:20:00,
2013-05-02 15:25:00,56.6,43.7,30.38,SE,142,5.0,6.0,62,0.00,,,0.00,Wunderground v.1.15,2013-05-02 19:25:00,
2013-05-02 15:35:00,56.7,43.4,30.38,SSE,153,5.0,6.0,61,0.00,,,0.00,Wunderground v.1.15,2013-05-02 19:35:00,
2013-05-02 15:40:00,57.0,44.1,30.38,SE,140,5.0,5.0,62,0.00,,,0.00,Wunderground v.1.15,2013-05-02 19:40:00,
2013-05-02 15:50:00,57.1,44.2,30.37,SE,135,5.0,5.0,62,0.00,,,0.00,Wunderground v.1.15,2013-05-02 19:50:00,
2013-05-02 15:55:00,56.9,44.8,30.37,SE,131,6.0,6.0,64,0.00,,,0.00,Wunderground v.1.15,2013-05-02 19:55:00,
2013-05-02 16:00:00,57.1,45.0,30.37,SSE,150,5.0,6.0,64,0.00,,,0.00,Wunderground v.1.15,2013-05-02 20:00:00,
2013-05-02 16:05:00,56.9,44.0,30.38,SSE,166,6.0,6.0,62,0.00,,,0.00,Wunderground v.1.15,2013-05-02 20:05:00,
2013-05-02 16:10:00,57.1,43.8,30.37,SSE,154,6.0,7.0,61,0.00,,,0.00,Wunderground v.1.15,2013-05-02 20:10:00,
2013-05-02 16:20:00,57.2,43.4,30.37,SE,135,6.0,7.0,60,0.00,,,0.00,Wunderground v.1.15,2013-05-02 20:20:00,
2013-05-02 16:30:00,57.3,44.4,30.37,SE,146,6.0,6.0,62,0.00,,,0.00,Wunderground v.1.15,2013-05-02 20:30:00,
2013-05-02 16:35:00,57.1,44.2,30.36,SE,146,6.0,8.0,62,0.00,,,0.00,Wunderground v.1.15,2013-05-02 20:35:00,
2013-05-02 16:40:00,57.0,44.1,30.37,SE,128,6.0,7.0,62,0.00,,,0.00,Wunderground v.1.15,2013-05-02 20:40:00,
2013-05-02 16:45:00,57.0,44.1,30.36,SE,146,5.0,7.0,62,0.00,,,0.00,Wunderground v.1.15,2013-05-02 20:45:00,
2013-05-02 16:55:00,57.1,44.2,30.36,SSE,150,5.0,7.0,62,0.00,,,0.00,Wunderground v.1.15,2013-05-02 20:55:00,
2013-05-02 17:00:00,57.2,44.3,30.36,SSE,149,6.0,6.0,62,0.00,,,0.00,Wunderground v.1.15,2013-05-02 21:00:00,
2013-05-02 17:10:00,57.2,43.9,30.36,SSE,148,6.0,6.0,61,0.00,,,0.00,Wunderground v.1.15,2013-05-02 21:10:00,
2013-05-02 17:15:00,57.1,44.2,30.36,SE,143,6.0,6.0,62,0.00,,,0.00,Wunderground v.1.15,2013-05-02 21:15:00,
2013-05-02 17:20:00,57.4,44.9,30.36,SE,139,5.0,5.0,63,0.00,,,0.00,Wunderground v.1.15,2013-05-02 21:20:00,
2013-05-02 17:30:00,57.6,43.8,30.35,SE,146,5.0,5.0,60,0.00,,,0.00,Wunderground v.1.15,2013-05-02 21:30:00,
2013-05-02 17:35:00,57.5,44.6,30.35,South,187,5.0,5.0,62,0.00,,,0.00,Wunderground v.1.15,2013-05-02 21:35:00,
2013-05-02 17:40:00,57.7,45.2,30.35,SW,214,5.0,5.0,63,0.00,,,0.00,Wunderground v.1.15,2013-05-02 21:40:00,
2013-05-02 17:45:00,57.8,44.9,30.35,SE,132,4.0,5.0,62,0.00,,,0.00,Wunderground v.1.15,2013-05-02 21:45:00,
2013-05-02 17:50:00,57.9,45.0,30.34,SSW,207,4.0,5.0,62,0.00,,,0.00,Wunderground v.1.15,2013-05-02 21:50:00,
2013-05-02 18:00:00,58.0,45.0,30.34,SSE,148,4.0,4.0,62,0.00,,,0.00,Wunderground v.1.15,2013-05-02 22:00:00,
2013-05-02 18:05:00,58.0,45.5,30.34,SSE,148,4.0,4.0,63,0.00,,,0.00,Wunderground v.1.15,2013-05-02 22:05:00,
2013-05-02 18:10:00,58.0,45.5,30.34,South,181,4.0,4.0,63,0.00,,,0.00,Wunderground v.1.15,2013-05-02 22:10:00,
2013-05-02 18:15:00,58.2,46.1,30.33,South,180,4.0,4.0,64,0.00,,,0.00,Wunderground v.1.15,2013-05-02 22:15:00,
2013-05-02 18:20:00,58.2,46.5,30.33,South,169,4.0,4.0,65,0.00,,,0.00,Wunderground v.1.15,2013-05-02 22:20:00,
2013-05-02 18:25:00,58.4,45.8,30.33,SE,126,4.0,4.0,63,0.00,,,0.00,Wunderground v.1.15,2013-05-02 22:25:00,
2013-05-02 18:30:00,58.3,46.2,30.33,SSE,149,3.0,3.0,64,0.00,,,0.00,Wunderground v.1.15,2013-05-02 22:30:00,
2013-05-02 18:40:00,57.9,46.6,30.32,SE,138,3.0,3.0,66,0.00,,,0.00,Wunderground v.1.15,2013-05-02 22:40:00,
2013-05-02 18:45:00,57.9,47.0,30.32,SSE,160,3.0,4.0,67,0.00,,,0.00,Wunderground v.1.15,2013-05-02 22:45:00,
2013-05-02 18:50:00,57.9,47.0,30.32,South,169,3.0,3.0,67,0.00,,,0.00,Wunderground v.1.15,2013-05-02 22:50:00,
2013-05-02 19:00:00,58.5,46.8,30.32,SSW,205,2.0,2.0,65,0.00,,,0.00,Wunderground v.1.15,2013-05-02 23:00:00,
2013-05-02 19:05:00,58.7,46.1,30.32,SSE,153,2.0,2.0,63,0.00,,,0.00,Wunderground v.1.15,2013-05-02 23:05:00,
2013-05-02 19:10:00,58.8,46.2,30.32,SSE,163,2.0,2.0,63,0.00,,,0.00,Wunderground v.1.15,2013-05-02 23:10:00,
2013-05-02 19:15:00,58.6,47.3,30.32,SE,142,2.0,3.0,66,0.00,,,0.00,Wunderground v.1.15,2013-05-02 23:15:00,
2013-05-02 19:20:00,58.2,47.3,30.32,SSW,201,2.0,2.0,67,0.00,,,0.00,Wunderground v.1.15,2013-05-02 23:20:00,
2013-05-02 19:25:00,58.0,46.7,30.32,ESE,122,2.0,2.0,66,0.00,,,0.00,Wunderground v.1.15,2013-05-02 23:25:00,
2013-05-02 19:30:00,57.9,45.8,30.31,SW,219,2.0,2.0,64,0.00,,,0.00,Wunderground v.1.15,2013-05-02 23:30:00,
2013-05-02 19:35:00,57.8,45.7,30.32,South,180,1.0,3.0,64,0.00,,,0.00,Wunderground v.1.15,2013-05-02 23:35:00,
2013-05-02 19:45:00,56.6,45.4,30.31,South,179,2.0,2.0,66,0.00,,,0.00,Wunderground v.1.15,2013-05-02 23:45:00,
2013-05-02 19:55:00,55.8,45.4,30.31,SW,215,1.0,2.0,68,0.00,,,0.00,Wunderground v.1.15,2013-05-02 23:55:00,
2013-05-02 20:00:00,55.5,45.5,30.32,SE,142,1.0,1.0,69,0.00,,,0.00,Wunderground v.1.15,2013-05-03 00:00:00,
2013-05-02 20:05:00,55.2,45.6,30.32,SSW,207,1.0,1.0,70,0.00,,,0.00,Wunderground v.1.15,2013-05-03 00:05:00,
2013-05-02 20:10:00,55.0,45.4,30.32,SSW,203,0.0,0.0,70,0.00,,,0.00,Wunderground v.1.15,2013-05-03 00:10:00,
2013-05-02 20:15:00,54.8,45.6,30.32,SW,222,0.0,0.0,71,0.00,,,0.00,Wunderground v.1.15,2013-05-03 00:15:00,
2013-05-02 20:20:00,54.7,45.5,30.32,SSW,212,0.0,0.0,71,0.00,,,0.00,Wunderground v.1.15,2013-05-03 00:20:00,
2013-05-02 20:25:00,54.6,45.8,30.32,SSW,212,0.0,0.0,72,0.00,,,0.00,Wunderground v.1.15,2013-05-03 00:25:00,
2013-05-02 20:30:00,54.4,45.2,30.31,SSW,204,0.0,0.0,71,0.00,,,0.00,Wunderground v.1.15,2013-05-03 00:30:00,
2013-05-02 20:40:00,54.1,44.9,30.31,South,174,0.0,1.0,71,0.00,,,0.00,Wunderground v.1.15,2013-05-03 00:40:00,
2013-05-02 20:45:00,54.2,46.1,30.32,South,181,0.0,1.0,74,0.00,,,0.00,Wunderground v.1.15,2013-05-03 00:45:00,
2013-05-02 20:50:00,54.1,46.3,30.32,South,181,0.0,0.0,75,0.00,,,0.00,Wunderground v.1.15,2013-05-03 00:50:00,
2013-05-02 20:55:00,53.9,46.5,30.32,South,182,0.0,0.0,76,0.00,,,0.00,Wunderground v.1.15,2013-05-03 00:55:00,
2013-05-02 21:00:00,53.7,46.7,30.32,South,181,0.0,0.0,77,0.00,,,0.00,Wunderground v.1.15,2013-05-03 01:00:00,
2013-05-02 21:05:00,53.5,47.1,30.32,South,181,0.0,0.0,79,0.00,,,0.00,Wunderground v.1.15,2013-05-03 01:05:00,
2013-05-02 21:10:00,53.3,47.3,30.32,South,182,0.0,0.0,80,0.00,,,0.00,Wunderground v.1.15,2013-05-03 01:10:00,
2013-05-02 21:20:00,53.2,47.8,30.32,South,181,0.0,1.0,82,0.00,,,0.00,Wunderground v.1.15,2013-05-03 01:20:00,
2013-05-02 21:25:00,53.0,47.7,30.32,South,182,0.0,1.0,82,0.00,,,0.00,Wunderground v.1.15,2013-05-03 01:25:00,
2013-05-02 21:30:00,52.9,47.9,30.32,SSE,167,0.0,1.0,83,0.00,,,0.00,Wunderground v.1.15,2013-05-03 01:30:00,
2013-05-02 21:35:00,52.7,47.7,30.32,SSE,167,0.0,1.0,83,0.00,,,0.00,Wunderground v.1.15,2013-05-03 01:35:00,
2013-05-02 21:40:00,52.5,47.5,30.32,SSE,153,0.0,0.0,83,0.00,,,0.00,Wunderground v.1.15,2013-05-03 01:40:00,
2013-05-02 21:45:00,52.2,47.5,30.32,SSE,155,0.0,0.0,84,0.00,,,0.00,Wunderground v.1.15,2013-05-03 01:45:00,
2013-05-02 21:50:00,52.2,47.5,30.32,SSE,156,0.0,0.0,84,0.00,,,0.00,Wunderground v.1.15,2013-05-03 01:50:00,
2013-05-02 22:00:00,52.2,47.5,30.32,SSE,156,0.0,0.0,84,0.00,,,0.00,Wunderground v.1.15,2013-05-03 02:00:00,
2013-05-02 22:05:00,52.1,47.4,30.31,SSE,156,0.0,0.0,84,0.00,,,0.00,Wunderground v.1.15,2013-05-03 02:05:00,
2013-05-02 22:10:00,52.0,47.3,30.31,SSE,153,0.0,0.0,84,0.00,,,0.00,Wunderground v.1.15,2013-05-03 02:10:00,
2013-05-02 22:15:00,52.1,48.0,30.31,SSE,154,0.0,0.0,86,0.00,,,0.00,Wunderground v.1.15,2013-05-03 02:15:00,
2013-05-02 22:20:00,52.0,47.9,30.31,SSE,153,0.0,1.0,86,0.00,,,0.00,Wunderground v.1.15,2013-05-03 02:20:00,
2013-05-02 22:25:00,51.9,47.8,30.31,SSE,156,1.0,1.0,86,0.00,,,0.00,Wunderground v.1.15,2013-05-03 02:25:00,
2013-05-02 22:30:00,51.6,47.5,30.31,SSE,158,1.0,1.0,86,0.00,,,0.00,Wunderground v.1.15,2013-05-03 02:30:00,
2013-05-02 22:35:00,51.4,47.7,30.32,SSE,158,1.0,1.0,87,0.00,,,0.00,Wunderground v.1.15,2013-05-03 02:35:00,
2013-05-02 22:40:00,51.3,47.6,30.32,SSE,158,0.0,0.0,87,0.00,,,0.00,Wunderground v.1.15,2013-05-03 02:40:00,
2013-05-02 22:50:00,51.2,47.5,30.32,SE,135,1.0,1.0,87,0.00,,,0.00,Wunderground v.1.15,2013-05-03 02:50:00,
2013-05-02 22:55:00,51.2,47.2,30.32,SSE,150,1.0,1.0,86,0.00,,,0.00,Wunderground v.1.15,2013-05-03 02:55:00,
2013-05-02 23:00:00,51.3,47.6,30.32,SE,145,0.0,0.0,87,0.00,,,0.00,Wunderground v.1.15,2013-05-03 03:00:00,
2013-05-02 23:05:00,51.3,47.6,30.32,SSE,153,1.0,1.0,87,0.00,,,0.00,Wunderground v.1.15,2013-05-03 03:05:00,
2013-05-02 23:10:00,51.3,47.6,30.32,SSE,153,0.0,0.0,87,0.00,,,0.00,Wunderground v.1.15,2013-05-03 03:10:00,
2013-05-02 23:15:00,51.2,47.8,30.32,SE,143,0.0,1.0,88,0.00,,,0.00,Wunderground v.1.15,2013-05-03 03:15:00,
2013-05-02 23:20:00,51.2,47.8,30.32,SE,126,1.0,2.0,88,0.00,,,0.00,Wunderground v.1.15,2013-05-03 03:20:00,
2013-05-02 23:25:00,51.5,48.1,30.33,SE,137,2.0,3.0,88,0.00,,,0.00,Wunderground v.1.15,2013-05-03 03:25:00,
2013-05-02 23:35:00,51.6,47.9,30.33,SE,139,2.0,2.0,87,0.00,,,0.00,Wunderground v.1.15,2013-05-03 03:35:00,
2013-05-02 23:40:00,51.4,47.7,30.33,SSE,154,2.0,2.0,87,0.00,,,0.00,Wunderground v.1.15,2013-05-03 03:40:00,
2013-05-02 23:50:00,51.3,47.3,30.33,SE,142,1.0,2.0,86,0.00,,,0.00,Wunderground v.1.15,2013-05-03 03:50:00,
2013-05-02 23:55:00,51.3,47.3,30.33,SE,142,2.0,2.0,86,0.00,,,0.00,Wunderground v.1.15,2013-05-03 03:55:00,